Location: Zagreb
(45.8000°N, 16.0000°E)
Time: 14:44:45
(UTC+02:00)

Vanguard 1 - Pass Details

Date: 16 August 2022
Orbit: 649 x 3832 km, 34.2° (Epoch: 25 September)

Event Time Altitude Azimuth Distance (km) Brightness Sun altitude
Rises 07:43:46 0° 269° (W) 6,396 13.6 17.3°
Reaches altitude 10° 07:47:32 10° 265° (W) 5,724 13.4 18.0°
Maximum altitude 08:06:02 55° 195° (SSW) 4,206 13.4 21.2°
Drops below altitude 10° 08:28:06 10° 126° (SE) 6,666 15.4 25.0°
Sets 08:32:58 0° 122° (ESE) 7,455 15.6 25.9°
